Location: Newark
(43.9494°N, 6.8108°E)
Time: 07:08:44
(UTC+00:00)

A-11 Canister half - Pass Details

Date: 26 October 2019
Orbit: 1514 x 1685 km, 47.2° (Epoch: 21 November)

Event Time Altitude Azimuth Distance (km) Brightness Sun altitude
Rises 07:46:12 0° 291° (WNW) 4,781 11.0 16.1°
Reaches altitude 10° 07:50:13 10° 278° (W) 3,764 10.6 16.7°
Maximum altitude 07:56:51 22° 233° (SW) 2,891 10.4 17.7°
Drops below altitude 10° 08:03:23 10° 187° (S) 3,679 11.5 18.6°
Sets 08:07:17 0° 173° (S) 4,646 12.3 19.1°
